Flag for U.S.A. Weather past 2 weeks in Baton Rouge, Louisiana, U.S.A.

Now
36 °F

Clear.


Feels Like: 36 °F
Forecast: 35 / 57 °F
Wind: No wind

Location: Baton Rouge Metropolitan - Ryan Field

Current Time: Dec 25, 2014 at 3:33:32 AM

Latest Report: Dec 25, 2014 at 2:53 AM


Visibility: 10 mi

Pressure: 30.15 "Hg

Humidity: 92%

Dew point: 34 °F

Location of Baton RougeLocation

Historic Weather in Baton Rouge — Graph

°F

Baton Rouge temperature yesterday

Maximum temperature yesterday: 54 °F (at 12:53 PM)
Minimum temperature yesterday: 41 °F (at 11:53 PM)
Average temperature yesterday: 47 °F

Past Weeks' High & Low Weather Summary

 TemperatureHumidityPressure
High77 °F (Dec 15, 2:53 PM)97% (Dec 14, 6:53 AM)30.38 "Hg (Dec 14, 6:53 AM)
Low35 °F (Dec 17, 5:53 AM)35% (Dec 16, 12:53 PM)29.48 "Hg (Dec 23, 12:53 PM)
Average54 °F76%30.09 "Hg
* Reported Dec 10 1:53 AM — Dec 25 1:53 AM, Baton Rouge, Weather by CustomWeather, © 2014

Note: Actual official high and low records may vary slightly from our data, if they occured in-between our weather recording intervals... More about our weather records

Advertising

Baton Rouge weather history for previous 24 hours

 ConditionsComfort  
Time TempWeatherWind HumidityBarometerVisibility
1:53 AM
Dec 25
38 °FClear.No wind90%30.16 "Hg10 mi
12:53 AM40 °FClear.3 mph86%30.14 "Hg10 mi
11:53 PM
Dec 24
41 °FClear.No wind80%30.14 "Hg10 mi
10:53 PM42 °FClear.3 mph79%30.14 "Hg10 mi
9:53 PM42 °FClear.5 mph76%30.13 "Hg10 mi
8:53 PM43 °FClear.3 mph74%30.11 "Hg10 mi
7:53 PM45 °FPassing clouds.6 mph68%30.07 "Hg10 mi
6:53 PM47 °FPassing clouds.13 mph61%30.06 "Hg10 mi
5:53 PM48 °FOvercast.7 mph56%30.03 "Hg10 mi
4:53 PM48 °FPartly sunny.12 mph54%30.01 "Hg10 mi
3:53 PM49 °FOvercast.10 mph52%29.98 "Hg10 mi
2:53 PM50 °FPartly sunny.15 mph48%29.96 "Hg10 mi
1:53 PM53 °FOvercast.17 mph47%29.94 "Hg10 mi
12:53 PM54 °FPartly sunny.14 mph49%29.93 "Hg10 mi
11:53 AM52 °FScattered clouds.17 mph55%29.94 "Hg10 mi
10:53 AM50 °FSunny.20 mph57%29.96 "Hg10 mi
9:53 AM50 °FPassing clouds.9 mph66%29.96 "Hg10 mi
8:53 AM48 °FScattered clouds.15 mph74%29.93 "Hg10 mi
7:53 AM46 °FSunny.10 mph86%29.90 "Hg10 mi
6:53 AM45 °FClear.7 mph86%29.86 "Hg10 mi
5:53 AM46 °FClear.8 mph86%29.84 "Hg10 mi
4:53 AM46 °FPassing clouds.9 mph86%29.80 "Hg10 mi
3:53 AM47 °FClear.12 mph83%29.79 "Hg10 mi
Weather by CustomWeather, © 2014

See weather overviewHow to use our weather pages